Time,TemperatureF,DewpointF,PressureIn,WindDirection,WindDirectionDegrees,WindSpeedMPH,WindSpeedGustMPH,Humidity,HourlyPrecipIn,Conditions,Clouds,dailyrainin,SoftwareType,DateUTC
2013-02-23 00:02:00,34.8,33.8,30.87,North,0,0.0,0.0,96,0.00,RA,RA,0.00,WeatherDisplay:10.37,2013-02-23 05:02:00,
2013-02-23 00:07:00,34.9,33.9,30.87,North,0,0.0,0.0,96,0.01,RA,RA,0.01,WeatherDisplay:10.37,2013-02-23 05:07:00,
2013-02-23 00:12:00,35.1,33.8,30.87,North,0,0.0,0.0,95,0.00,RA,RA,0.01,WeatherDisplay:10.37,2013-02-23 05:12:00,
2013-02-23 00:17:00,35.2,33.9,30.86,North,1,0.0,0.0,95,0.00,,,0.01,WeatherDisplay:10.37,2013-02-23 05:17:00,
2013-02-23 00:22:00,35.2,33.6,30.87,North,1,0.0,0.0,94,0.00,CLR,CLR,0.01,WeatherDisplay:10.37,2013-02-23 05:22:00,
2013-02-23 00:27:00,35.2,33.6,30.86,North,0,0.0,0.0,94,0.00,CLR,CLR,0.01,WeatherDisplay:10.37,2013-02-23 05:27:00,
2013-02-23 00:32:00,35.2,33.6,30.86,North,1,0.0,0.0,94,0.00,CLR,CLR,0.01,WeatherDisplay:10.37,2013-02-23 05:32:00,
2013-02-23 00:37:00,35.3,34.5,30.86,North,0,0.0,2.0,97,0.00,CLR,CLR,0.01,WeatherDisplay:10.37,2013-02-23 05:37:00,
2013-02-23 00:42:00,35.3,34.5,30.86,SSE,155,1.0,5.0,97,0.00,CLR,CLR,0.01,WeatherDisplay:10.37,2013-02-23 05:42:00,
2013-02-23 00:47:00,35.4,34.6,30.86,SSE,161,0.0,5.0,97,0.00,CLR,CLR,0.01,WeatherDisplay:10.37,2013-02-23 05:47:00,
2013-02-23 00:52:00,35.4,34.6,30.86,SSE,160,0.0,6.0,97,0.00,CLR,CLR,0.01,WeatherDisplay:10.37,2013-02-23 05:52:00,
2013-02-23 00:57:00,35.5,34.7,30.85,SSE,155,1.0,6.0,97,0.00,CLR,CLR,0.01,WeatherDisplay:10.37,2013-02-23 05:57:00,
2013-02-23 01:02:00,35.5,34.5,30.86,SSE,161,2.0,6.0,96,0.00,CLR,CLR,0.01,WeatherDisplay:10.37,2013-02-23 06:02:00,
2013-02-23 01:07:00,35.5,34.5,30.86,South,171,2.0,6.0,96,0.00,CLR,CLR,0.01,WeatherDisplay:10.37,2013-02-23 06:07:00,
2013-02-23 01:12:00,35.4,34.4,30.85,South,173,2.0,6.0,96,0.00,CLR,CLR,0.01,WeatherDisplay:10.37,2013-02-23 06:12:00,
2013-02-23 01:22:00,35.3,34.3,30.85,South,171,5.0,7.0,96,0.00,CLR,CLR,0.01,WeatherDisplay:10.37,2013-02-23 06:22:00,
2013-02-23 01:32:00,35.2,34.2,30.85,SSE,167,3.0,5.0,96,0.00,CLR,CLR,0.01,WeatherDisplay:10.37,2013-02-23 06:32:00,
2013-02-23 01:37:00,35.0,33.7,30.85,South,169,2.0,5.0,95,0.00,CLR,CLR,0.01,WeatherDisplay:10.37,2013-02-23 06:37:00,
2013-02-23 01:42:00,35.0,34.0,30.85,South,173,3.0,6.0,96,0.00,CLR,CLR,0.01,WeatherDisplay:10.37,2013-02-23 06:42:00,
2013-02-23 01:47:00,35.2,34.2,30.85,South,169,3.0,7.0,96,0.00,CLR,CLR,0.01,WeatherDisplay:10.37,2013-02-23 06:47:00,
2013-02-23 01:52:00,35.3,34.3,30.85,SSE,168,5.0,6.0,96,0.00,CLR,CLR,0.01,WeatherDisplay:10.37,2013-02-23 06:52:00,
2013-02-23 01:57:00,35.4,34.4,30.85,South,176,3.0,7.0,96,0.00,CLR,CLR,0.01,WeatherDisplay:10.37,2013-02-23 06:57:00,
2013-02-23 02:07:00,35.5,34.2,30.85,South,174,5.0,6.0,95,0.00,CLR,CLR,0.01,WeatherDisplay:10.37,2013-02-23 07:07:00,
2013-02-23 02:12:00,35.4,34.1,30.85,South,173,3.0,5.0,95,0.00,CLR,CLR,0.01,WeatherDisplay:10.37,2013-02-23 07:12:00,
2013-02-23 02:17:00,35.5,34.2,30.85,South,170,3.0,6.0,95,0.00,CLR,CLR,0.01,WeatherDisplay:10.37,2013-02-23 07:17:00,
2013-02-23 02:22:00,35.5,34.2,30.85,South,177,3.0,6.0,95,0.00,CLR,CLR,0.01,WeatherDisplay:10.37,2013-02-23 07:22:00,
2013-02-23 02:27:00,35.6,34.3,30.84,South,170,3.0,6.0,95,0.00,CLR,CLR,0.01,WeatherDisplay:10.37,2013-02-23 07:27:00,
2013-02-23 02:32:00,35.7,34.1,30.84,SSE,167,5.0,7.0,94,0.00,CLR,CLR,0.01,WeatherDisplay:10.37,2013-02-23 07:32:00,
2013-02-23 02:37:00,35.8,34.0,30.84,SSE,167,3.0,9.0,93,0.00,CLR,CLR,0.01,WeatherDisplay:10.37,2013-02-23 07:37:00,
2013-02-23 02:42:00,35.8,34.0,30.84,South,169,5.0,8.0,93,0.00,CLR,CLR,0.01,WeatherDisplay:10.37,2013-02-23 07:42:00,
2013-02-23 02:47:00,35.8,33.7,30.83,South,170,6.0,10.0,92,0.00,CLR,CLR,0.01,WeatherDisplay:10.37,2013-02-23 07:47:00,
2013-02-23 02:52:00,35.8,33.7,30.83,South,175,3.0,6.0,92,0.00,CLR,CLR,0.01,WeatherDisplay:10.37,2013-02-23 07:52:00,
2013-02-23 02:57:00,35.6,33.5,30.83,South,182,3.0,6.0,92,0.00,CLR,CLR,0.01,WeatherDisplay:10.37,2013-02-23 07:57:00,
2013-02-23 03:02:00,35.6,33.5,30.83,South,178,3.0,7.0,92,0.00,CLR,CLR,0.01,WeatherDisplay:10.37,2013-02-23 08:02:00,
2013-02-23 03:07:00,35.6,33.5,30.83,South,171,1.0,5.0,92,0.00,CLR,CLR,0.01,WeatherDisplay:10.37,2013-02-23 08:07:00,
2013-02-23 03:12:00,35.6,33.5,30.83,SSE,156,3.0,5.0,92,0.00,CLR,CLR,0.01,WeatherDisplay:10.37,2013-02-23 08:12:00,
2013-02-23 03:17:00,35.6,33.5,30.82,SSE,154,0.0,4.0,92,0.00,CLR,CLR,0.01,WeatherDisplay:10.37,2013-02-23 08:17:00,
2013-02-23 03:22:00,35.6,33.5,30.83,SSE,154,0.0,2.0,92,0.00,CLR,CLR,0.01,WeatherDisplay:10.37,2013-02-23 08:22:00,
2013-02-23 03:27:00,35.5,33.4,30.83,SSE,154,0.0,1.0,92,0.00,CLR,CLR,0.01,WeatherDisplay:10.37,2013-02-23 08:27:00,
2013-02-23 03:32:00,35.3,33.2,30.82,SSE,154,1.0,4.0,92,0.00,CLR,CLR,0.01,WeatherDisplay:10.37,2013-02-23 08:32:00,
2013-02-23 03:37:00,35.3,33.5,30.82,SSE,150,0.0,7.0,93,0.00,CLR,CLR,0.01,WeatherDisplay:10.37,2013-02-23 08:37:00,
2013-02-23 03:42:00,35.3,33.2,30.82,SSE,148,3.0,5.0,92,0.00,CLR,CLR,0.01,WeatherDisplay:10.37,2013-02-23 08:42:00,
2013-02-23 03:47:00,35.3,33.2,30.82,SSE,148,0.0,4.0,92,0.00,CLR,CLR,0.01,WeatherDisplay:10.37,2013-02-23 08:47:00,
2013-02-23 03:52:00,35.1,33.0,30.82,SSE,148,0.0,0.0,92,0.00,CLR,CLR,0.01,WeatherDisplay:10.37,2013-02-23 08:52:00,
2013-02-23 03:57:00,35.0,33.2,30.82,SSE,148,0.0,0.0,93,0.00,CLR,CLR,0.01,WeatherDisplay:10.37,2013-02-23 08:57:00,
2013-02-23 04:02:00,35.0,33.2,30.82,SSE,148,0.0,0.0,93,0.00,CLR,CLR,0.01,WeatherDisplay:10.37,2013-02-23 09:02:00,
2013-02-23 04:07:00,35.0,33.2,30.82,SSE,148,0.0,1.0,93,0.00,CLR,CLR,0.01,WeatherDisplay:10.37,2013-02-23 09:07:00,
2013-02-23 04:12:00,35.0,33.2,30.81,SSE,148,0.0,0.0,93,0.00,CLR,CLR,0.01,WeatherDisplay:10.37,2013-02-23 09:12:00,
2013-02-23 04:17:00,34.9,33.1,30.81,SSE,148,0.0,0.0,93,0.00,CLR,CLR,0.01,WeatherDisplay:10.37,2013-02-23 09:17:00,
2013-02-23 04:22:00,34.8,33.0,30.81,SSE,148,0.0,1.0,93,0.00,CLR,CLR,0.01,WeatherDisplay:10.37,2013-02-23 09:22:00,
2013-02-23 04:27:00,34.8,33.2,30.81,SSE,148,0.0,0.0,94,0.00,CLR,CLR,0.01,WeatherDisplay:10.37,2013-02-23 09:27:00,
2013-02-23 04:32:00,34.6,32.8,30.81,SSE,148,0.0,0.0,93,0.00,CLR,CLR,0.01,WeatherDisplay:10.37,2013-02-23 09:32:00,
2013-02-23 04:37:00,34.6,33.1,30.81,SSE,148,0.0,0.0,94,0.00,CLR,CLR,0.01,WeatherDisplay:10.37,2013-02-23 09:37:00,
2013-02-23 04:42:00,34.6,33.1,30.81,SSE,148,0.0,0.0,94,0.00,CLR,CLR,0.01,WeatherDisplay:10.37,2013-02-23 09:42:00,
2013-02-23 04:47:00,34.6,33.1,30.81,SSE,148,0.0,0.0,94,0.00,CLR,CLR,0.01,WeatherDisplay:10.37,2013-02-23 09:47:00,
2013-02-23 04:52:00,34.6,33.1,30.81,SSE,148,1.0,4.0,94,0.00,CLR,CLR,0.01,WeatherDisplay:10.37,2013-02-23 09:52:00,
2013-02-23 04:57:00,34.7,33.2,30.81,SSE,148,0.0,2.0,94,0.00,CLR,CLR,0.01,WeatherDisplay:10.37,2013-02-23 09:57:00,
2013-02-23 05:02:00,34.7,33.2,30.81,SSE,148,0.0,0.0,94,0.00,CLR,CLR,0.01,WeatherDisplay:10.37,2013-02-23 10:02:00,
2013-02-23 05:07:00,34.7,33.2,30.81,SSE,148,0.0,5.0,94,0.00,CLR,CLR,0.01,WeatherDisplay:10.37,2013-02-23 10:07:00,
2013-02-23 05:12:00,34.8,33.2,30.82,SSE,149,0.0,5.0,94,0.00,CLR,CLR,0.01,WeatherDisplay:10.37,2013-02-23 10:12:00,
2013-02-23 05:17:00,34.8,33.2,30.81,SSE,162,3.0,5.0,94,0.00,CLR,CLR,0.01,WeatherDisplay:10.37,2013-02-23 10:17:00,
2013-02-23 05:22:00,34.8,33.2,30.82,South,171,2.0,4.0,94,0.00,CLR,CLR,0.01,WeatherDisplay:10.37,2013-02-23 10:22:00,
2013-02-23 05:27:00,34.8,33.2,30.82,South,171,3.0,5.0,94,0.00,CLR,CLR,0.01,WeatherDisplay:10.37,2013-02-23 10:27:00,
2013-02-23 05:32:00,34.8,33.2,30.82,South,172,3.0,5.0,94,0.00,CLR,CLR,0.01,WeatherDisplay:10.37,2013-02-23 10:32:00,
2013-02-23 05:37:00,34.8,33.3,30.82,South,176,3.0,6.0,94,0.00,CLR,CLR,0.01,WeatherDisplay:10.37,2013-02-23 10:37:00,
2013-02-23 05:42:00,35.0,33.2,30.82,South,179,5.0,6.0,93,0.00,CLR,CLR,0.01,WeatherDisplay:10.37,2013-02-23 10:42:00,
2013-02-23 05:47:00,35.1,33.3,30.82,South,186,6.0,7.0,93,0.00,CLR,CLR,0.01,WeatherDisplay:10.37,2013-02-23 10:47:00,
2013-02-23 05:52:00,35.3,33.2,30.82,SSW,194,2.0,5.0,92,0.00,CLR,CLR,0.01,WeatherDisplay:10.37,2013-02-23 10:52:00,
2013-02-23 05:57:00,35.2,32.8,30.82,SSW,197,3.0,5.0,91,0.00,CLR,CLR,0.01,WeatherDisplay:10.37,2013-02-23 10:57:00,
2013-02-23 06:02:00,35.2,32.8,30.82,South,182,5.0,6.0,91,0.00,CLR,CLR,0.01,WeatherDisplay:10.37,2013-02-23 11:02:00,
2013-02-23 06:07:00,35.2,32.8,30.82,South,170,2.0,5.0,91,0.00,CLR,CLR,0.01,WeatherDisplay:10.37,2013-02-23 11:07:00,
2013-02-23 06:12:00,35.3,32.9,30.82,SSE,165,3.0,8.0,91,0.00,CLR,CLR,0.01,WeatherDisplay:10.37,2013-02-23 11:12:00,
2013-02-23 06:17:00,35.4,32.8,30.81,South,171,5.0,7.0,90,0.00,CLR,CLR,0.01,WeatherDisplay:10.37,2013-02-23 11:17:00,
2013-02-23 06:22:00,35.5,32.5,30.82,South,180,5.0,7.0,89,0.00,CLR,CLR,0.01,WeatherDisplay:10.37,2013-02-23 11:22:00,
2013-02-23 06:27:00,35.5,32.6,30.81,South,187,3.0,5.0,89,0.00,CLR,CLR,0.01,WeatherDisplay:10.37,2013-02-23 11:27:00,
2013-02-23 06:32:00,35.5,32.6,30.82,South,186,3.0,5.0,89,0.00,CLR,CLR,0.01,WeatherDisplay:10.37,2013-02-23 11:32:00,
2013-02-23 06:37:00,35.4,32.5,30.82,South,174,5.0,7.0,89,0.00,CLR,CLR,0.01,WeatherDisplay:10.37,2013-02-23 11:37:00,
2013-02-23 06:42:00,35.5,32.5,30.82,South,175,2.0,6.0,89,0.00,CLR,CLR,0.01,WeatherDisplay:10.37,2013-02-23 11:42:00,
2013-02-23 06:47:00,35.4,32.2,30.82,South,178,1.0,5.0,88,0.00,CLR,CLR,0.01,WeatherDisplay:10.37,2013-02-23 11:47:00,
2013-02-23 06:52:00,35.3,32.4,30.82,South,180,2.0,5.0,89,0.00,CLR,CLR,0.01,WeatherDisplay:10.37,2013-02-23 11:52:00,
2013-02-23 06:57:00,35.3,32.4,30.82,South,185,2.0,4.0,89,0.00,CLR,CLR,0.01,WeatherDisplay:10.37,2013-02-23 11:57:00,
2013-02-23 07:02:00,35.3,32.1,30.82,South,182,3.0,7.0,88,0.00,CLR,CLR,0.01,WeatherDisplay:10.37,2013-02-23 12:02:00,
2013-02-23 07:07:00,35.4,32.2,30.81,South,180,3.0,6.0,88,0.00,CLR,CLR,0.01,WeatherDisplay:10.37,2013-02-23 12:07:00,
2013-02-23 07:12:00,35.4,32.2,30.82,South,184,3.0,4.0,88,0.00,CLR,CLR,0.01,WeatherDisplay:10.37,2013-02-23 12:12:00,
2013-02-23 07:17:00,35.5,32.3,30.81,South,183,3.0,5.0,88,0.00,CLR,CLR,0.01,WeatherDisplay:10.37,2013-02-23 12:17:00,
2013-02-23 07:22:00,35.5,32.3,30.81,South,176,2.0,5.0,88,0.00,CLR,CLR,0.01,WeatherDisplay:10.37,2013-02-23 12:22:00,
2013-02-23 07:27:00,35.5,32.0,30.81,SSE,165,5.0,7.0,87,0.00,CLR,CLR,0.01,WeatherDisplay:10.37,2013-02-23 12:27:00,
2013-02-23 07:32:00,35.6,32.1,30.80,SSE,162,0.0,7.0,87,0.00,CLR,CLR,0.01,WeatherDisplay:10.37,2013-02-23 12:32:00,
2013-02-23 07:37:00,35.7,32.2,30.80,SSE,155,1.0,7.0,87,0.00,CLR,CLR,0.01,WeatherDisplay:10.37,2013-02-23 12:37:00,
2013-02-23 07:42:00,35.7,31.9,30.80,SSE,156,1.0,6.0,86,0.00,CLR,CLR,0.01,WeatherDisplay:10.37,2013-02-23 12:42:00,
2013-02-23 07:47:00,35.8,32.0,30.81,SSE,165,1.0,5.0,86,0.00,CLR,CLR,0.01,WeatherDisplay:10.37,2013-02-23 12:47:00,
2013-02-23 07:52:00,35.8,32.0,30.81,South,177,0.0,5.0,86,0.00,CLR,CLR,0.01,WeatherDisplay:10.37,2013-02-23 12:52:00,
2013-02-23 07:57:00,35.7,32.2,30.81,South,177,2.0,5.0,87,0.00,CLR,CLR,0.01,WeatherDisplay:10.37,2013-02-23 12:57:00,
2013-02-23 08:02:00,35.7,32.2,30.81,South,177,2.0,5.0,87,0.00,CLR,CLR,0.01,WeatherDisplay:10.37,2013-02-23 13:02:00,
2013-02-23 08:07:00,35.6,32.1,30.80,South,177,1.0,5.0,87,0.00,CLR,CLR,0.01,WeatherDisplay:10.37,2013-02-23 13:07:00,
2013-02-23 08:12:00,35.7,32.2,30.80,South,177,0.0,5.0,87,0.00,CLR,CLR,0.01,WeatherDisplay:10.37,2013-02-23 13:12:00,
2013-02-23 08:17:00,35.7,32.0,30.80,South,177,0.0,2.0,86,0.00,CLR,CLR,0.01,WeatherDisplay:10.37,2013-02-23 13:17:00,
2013-02-23 08:22:00,35.8,32.0,30.81,South,177,0.0,5.0,86,0.00,CLR,CLR,0.01,WeatherDisplay:10.37,2013-02-23 13:22:00,
2013-02-23 08:27:00,35.8,32.3,30.81,South,177,1.0,4.0,87,0.00,CLR,CLR,0.01,WeatherDisplay:10.37,2013-02-23 13:27:00,
2013-02-23 08:32:00,35.7,32.2,30.81,South,177,0.0,4.0,87,0.00,CLR,CLR,0.01,WeatherDisplay:10.37,2013-02-23 13:32:00,
2013-02-23 08:37:00,35.7,32.2,30.81,South,177,0.0,2.0,87,0.00,CLR,CLR,0.01,WeatherDisplay:10.37,2013-02-23 13:37:00,
2013-02-23 08:42:00,35.6,32.4,30.81,South,177,2.0,5.0,88,0.00,CLR,CLR,0.01,WeatherDisplay:10.37,2013-02-23 13:42:00,
2013-02-23 08:47:00,35.7,32.5,30.81,South,177,3.0,6.0,88,0.00,CLR,CLR,0.01,WeatherDisplay:10.37,2013-02-23 13:47:00,
2013-02-23 08:52:00,35.8,32.3,30.81,South,174,5.0,6.0,87,0.00,CLR,CLR,0.01,WeatherDisplay:10.37,2013-02-23 13:52:00,
2013-02-23 08:57:00,35.9,32.7,30.81,South,171,2.0,5.0,88,0.00,CLR,CLR,0.01,WeatherDisplay:10.37,2013-02-23 13:57:00,
2013-02-23 09:02:00,35.9,32.7,30.81,South,171,1.0,6.0,88,0.00,CLR,CLR,0.01,WeatherDisplay:10.37,2013-02-23 14:02:00,
2013-02-23 09:07:00,35.8,32.6,30.81,South,172,0.0,2.0,88,0.00,CLR,CLR,0.01,WeatherDisplay:10.37,2013-02-23 14:07:00,
2013-02-23 09:12:00,35.9,32.7,30.81,South,186,0.0,4.0,88,0.00,CLR,CLR,0.01,WeatherDisplay:10.37,2013-02-23 14:12:00,
2013-02-23 09:17:00,35.9,32.7,30.81,South,185,5.0,6.0,88,0.00,CLR,CLR,0.01,WeatherDisplay:10.37,2013-02-23 14:17:00,
2013-02-23 09:22:00,36.0,32.8,30.81,South,174,1.0,4.0,88,0.00,CLR,CLR,0.01,WeatherDisplay:10.37,2013-02-23 14:22:00,
2013-02-23 09:27:00,36.0,32.8,30.81,South,171,0.0,0.0,88,0.00,CLR,CLR,0.01,WeatherDisplay:10.37,2013-02-23 14:27:00,
2013-02-23 09:32:00,36.0,32.5,30.80,South,172,1.0,5.0,87,0.00,CLR,CLR,0.01,WeatherDisplay:10.37,2013-02-23 14:32:00,
2013-02-23 09:37:00,36.1,32.4,30.80,SSW,208,3.0,6.0,86,0.00,CLR,CLR,0.01,WeatherDisplay:10.37,2013-02-23 14:37:00,
2013-02-23 09:42:00,36.2,31.2,30.81,WSW,239,0.0,6.0,82,0.00,CLR,CLR,0.01,WeatherDisplay:10.37,2013-02-23 14:42:00,
2013-02-23 09:47:00,36.2,31.2,30.81,North,352,0.0,0.0,82,0.00,CLR,CLR,0.01,WeatherDisplay:10.37,2013-02-23 14:47:00,
2013-02-23 09:52:00,36.0,30.4,30.81,North,0,0.0,0.0,80,0.00,CLR,CLR,0.01,WeatherDisplay:10.37,2013-02-23 14:52:00,
2013-02-23 09:57:00,35.5,30.2,30.81,North,0,0.0,0.0,81,0.00,CLR,CLR,0.01,WeatherDisplay:10.37,2013-02-23 14:57:00,
2013-02-23 10:02:00,35.2,30.3,30.81,North,0,0.0,0.0,82,0.00,CLR,CLR,0.01,WeatherDisplay:10.37,2013-02-23 15:02:00,
2013-02-23 10:07:00,34.9,30.0,30.80,North,0,0.0,0.0,82,0.00,CLR,CLR,0.01,WeatherDisplay:10.37,2013-02-23 15:07:00,
2013-02-23 10:12:00,34.7,30.1,30.80,North,1,0.0,0.0,83,0.00,CLR,CLR,0.01,WeatherDisplay:10.37,2013-02-23 15:12:00,
2013-02-23 10:17:00,34.6,30.0,30.80,North,0,0.0,0.0,83,0.00,CLR,CLR,0.01,WeatherDisplay:10.37,2013-02-23 15:17:00,
2013-02-23 10:22:00,34.7,30.1,30.80,North,1,0.0,0.0,83,0.00,CLR,CLR,0.01,WeatherDisplay:10.37,2013-02-23 15:22:00,
2013-02-23 10:27:00,34.8,30.2,30.80,North,1,0.0,0.0,83,0.00,CLR,CLR,0.01,WeatherDisplay:10.37,2013-02-23 15:27:00,
2013-02-23 10:32:00,34.8,30.2,30.80,North,0,0.0,0.0,83,0.00,CLR,CLR,0.01,WeatherDisplay:10.37,2013-02-23 15:32:00,
2013-02-23 10:37:00,34.8,30.2,30.80,North,0,0.0,0.0,83,0.00,CLR,CLR,0.01,WeatherDisplay:10.37,2013-02-23 15:37:00,
2013-02-23 10:42:00,34.8,30.2,30.81,North,0,0.0,0.0,83,0.00,CLR,CLR,0.01,WeatherDisplay:10.37,2013-02-23 15:42:00,
2013-02-23 10:47:00,34.8,30.2,30.81,North,0,0.0,0.0,83,0.00,CLR,CLR,0.01,WeatherDisplay:10.37,2013-02-23 15:47:00,
2013-02-23 10:52:00,34.7,30.1,30.81,North,0,0.0,0.0,83,0.00,CLR,CLR,0.01,WeatherDisplay:10.37,2013-02-23 15:52:00,
2013-02-23 10:57:00,34.6,30.0,30.81,North,0,0.0,0.0,83,0.00,CLR,CLR,0.01,WeatherDisplay:10.37,2013-02-23 15:57:00,
2013-02-23 11:02:00,34.6,29.9,30.81,North,0,0.0,0.0,83,0.00,CLR,CLR,0.01,WeatherDisplay:10.37,2013-02-23 16:02:00,
2013-02-23 11:07:00,34.6,30.0,30.81,North,0,0.0,0.0,83,0.00,CLR,CLR,0.01,WeatherDisplay:10.37,2013-02-23 16:07:00,
2013-02-23 11:12:00,34.5,29.9,30.81,North,0,0.0,0.0,83,0.00,CLR,CLR,0.01,WeatherDisplay:10.37,2013-02-23 16:12:00,
2013-02-23 11:17:00,34.5,29.9,30.81,North,0,0.0,0.0,83,0.00,CLR,CLR,0.01,WeatherDisplay:10.37,2013-02-23 16:17:00,
2013-02-23 11:22:00,34.6,30.0,30.81,North,0,0.0,0.0,83,0.00,CLR,CLR,0.01,WeatherDisplay:10.37,2013-02-23 16:22:00,
2013-02-23 11:27:00,34.5,29.9,30.81,North,0,0.0,0.0,83,0.00,CLR,CLR,0.01,WeatherDisplay:10.37,2013-02-23 16:27:00,
2013-02-23 11:32:00,34.2,29.6,30.81,North,1,0.0,0.0,83,0.00,CLR,CLR,0.01,WeatherDisplay:10.37,2013-02-23 16:32:00,
2013-02-23 11:37:00,33.8,29.5,30.81,North,1,0.0,0.0,84,0.00,CLR,CLR,0.01,WeatherDisplay:10.37,2013-02-23 16:37:00,
2013-02-23 11:42:00,33.4,29.1,30.81,North,0,0.0,0.0,84,0.00,CLR,CLR,0.01,WeatherDisplay:10.37,2013-02-23 16:42:00,
2013-02-23 11:47:00,33.1,29.1,30.81,North,1,0.0,0.0,85,0.00,CLR,CLR,0.01,WeatherDisplay:10.37,2013-02-23 16:47:00,
2013-02-23 11:52:00,33.0,29.0,30.81,North,0,0.0,0.0,85,0.00,CLR,CLR,0.01,WeatherDisplay:10.37,2013-02-23 16:52:00,
2013-02-23 11:57:00,32.9,28.9,30.81,North,0,0.0,0.0,85,0.00,CLR,CLR,0.01,WeatherDisplay:10.37,2013-02-23 16:57:00,
2013-02-23 12:02:00,32.7,28.4,30.81,North,1,0.0,0.0,84,0.00,CLR,CLR,0.01,WeatherDisplay:10.37,2013-02-23 17:02:00,
2013-02-23 12:07:00,32.6,28.0,30.81,North,0,0.0,0.0,83,0.00,CLR,CLR,0.01,WeatherDisplay:10.37,2013-02-23 17:07:00,
2013-02-23 12:12:00,32.4,27.5,30.81,North,0,0.0,0.0,82,0.00,CLR,CLR,0.01,WeatherDisplay:10.37,2013-02-23 17:12:00,
2013-02-23 12:17:00,32.6,27.4,30.80,North,0,0.0,0.0,81,0.00,CLR,CLR,0.01,WeatherDisplay:10.37,2013-02-23 17:17:00,
2013-02-23 12:22:00,32.6,27.1,30.80,North,1,0.0,0.0,80,0.00,CLR,CLR,0.01,WeatherDisplay:10.37,2013-02-23 17:22:00,
2013-02-23 12:27:00,32.3,26.5,30.80,North,1,0.0,0.0,79,0.00,CLR,CLR,0.01,WeatherDisplay:10.37,2013-02-23 17:27:00,
2013-02-23 12:32:00,32.4,26.3,30.80,North,1,0.0,0.0,78,0.00,CLR,CLR,0.01,WeatherDisplay:10.37,2013-02-23 17:32:00,
2013-02-23 12:37:00,32.4,26.3,30.80,North,1,0.0,0.0,78,0.00,CLR,CLR,0.01,WeatherDisplay:10.37,2013-02-23 17:37:00,
2013-02-23 12:42:00,32.5,26.4,30.80,North,1,0.0,0.0,78,0.00,CLR,CLR,0.01,WeatherDisplay:10.37,2013-02-23 17:42:00,
2013-02-23 12:47:00,32.6,26.2,30.79,North,0,0.0,0.0,77,0.00,CLR,CLR,0.01,WeatherDisplay:10.37,2013-02-23 17:47:00,
2013-02-23 12:52:00,32.8,26.4,30.79,North,0,0.0,0.0,77,0.00,CLR,CLR,0.01,WeatherDisplay:10.37,2013-02-23 17:52:00,
2013-02-23 12:57:00,32.9,26.2,30.79,North,0,0.0,0.0,76,0.00,CLR,CLR,0.01,WeatherDisplay:10.37,2013-02-23 17:57:00,
2013-02-23 13:02:00,33.0,26.3,30.79,North,1,0.0,0.0,76,0.00,CLR,CLR,0.01,WeatherDisplay:10.37,2013-02-23 18:02:00,
2013-02-23 13:07:00,33.0,26.3,30.79,North,1,0.0,0.0,76,0.00,CLR,CLR,0.01,WeatherDisplay:10.37,2013-02-23 18:07:00,
2013-02-23 13:12:00,33.1,26.4,30.79,North,0,0.0,0.0,76,0.00,CLR,CLR,0.01,WeatherDisplay:10.37,2013-02-23 18:12:00,
2013-02-23 13:17:00,33.3,25.9,30.79,North,0,0.0,0.0,74,0.00,CLR,CLR,0.01,WeatherDisplay:10.37,2013-02-23 18:17:00,
2013-02-23 13:22:00,33.2,25.5,30.78,North,0,0.0,0.0,73,0.00,CLR,CLR,0.01,WeatherDisplay:10.37,2013-02-23 18:22:00,
2013-02-23 13:27:00,33.0,25.6,30.78,North,0,0.0,0.0,74,0.00,CLR,CLR,0.01,WeatherDisplay:10.37,2013-02-23 18:27:00,
2013-02-23 13:32:00,33.2,26.1,30.78,North,0,0.0,0.0,75,0.00,CLR,CLR,0.01,WeatherDisplay:10.37,2013-02-23 18:32:00,
2013-02-23 13:37:00,33.0,25.6,30.78,North,0,0.0,0.0,74,0.00,CLR,CLR,0.01,WeatherDisplay:10.37,2013-02-23 18:37:00,
2013-02-23 13:42:00,33.0,25.6,30.78,North,1,0.0,0.0,74,0.00,CLR,CLR,0.01,WeatherDisplay:10.37,2013-02-23 18:42:00,
2013-02-23 13:47:00,33.0,25.6,30.78,North,0,0.0,0.0,74,0.00,CLR,CLR,0.01,WeatherDisplay:10.37,2013-02-23 18:47:00,
2013-02-23 13:52:00,33.3,25.9,30.78,North,0,0.0,0.0,74,0.00,CLR,CLR,0.01,WeatherDisplay:10.37,2013-02-23 18:52:00,
2013-02-23 13:57:00,33.6,25.9,30.78,North,0,0.0,0.0,73,0.00,CLR,CLR,0.01,WeatherDisplay:10.37,2013-02-23 18:57:00,
2013-02-23 14:02:00,33.8,26.1,30.78,North,0,0.0,0.0,73,0.00,CLR,CLR,0.01,WeatherDisplay:10.37,2013-02-23 19:02:00,
2013-02-23 14:07:00,33.9,26.1,30.78,North,0,0.0,0.0,73,0.00,CLR,CLR,0.01,WeatherDisplay:10.37,2013-02-23 19:07:00,
2013-02-23 14:12:00,34.3,26.9,30.77,North,1,0.0,0.0,74,0.00,CLR,CLR,0.01,WeatherDisplay:10.37,2013-02-23 19:12:00,
2013-02-23 14:17:00,35.2,27.1,30.77,North,1,0.0,0.0,72,0.00,CLR,CLR,0.01,WeatherDisplay:10.37,2013-02-23 19:17:00,
2013-02-23 14:22:00,35.7,26.8,30.77,North,1,0.0,0.0,70,0.00,CLR,CLR,0.01,WeatherDisplay:10.37,2013-02-23 19:22:00,
2013-02-23 14:27:00,36.0,26.8,30.77,North,1,0.0,0.0,69,0.00,CLR,CLR,0.01,WeatherDisplay:10.37,2013-02-23 19:27:00,
2013-02-23 14:32:00,36.1,27.6,30.77,North,1,0.0,0.0,71,0.00,CLR,CLR,0.01,WeatherDisplay:10.37,2013-02-23 19:32:00,
2013-02-23 14:37:00,36.1,27.3,30.76,North,0,0.0,0.0,70,0.00,CLR,CLR,0.01,WeatherDisplay:10.37,2013-02-23 19:37:00,
2013-02-23 14:42:00,36.1,27.3,30.77,North,1,0.0,0.0,70,0.00,CLR,CLR,0.01,WeatherDisplay:10.37,2013-02-23 19:42:00,
2013-02-23 14:47:00,36.1,27.3,30.77,North,1,0.0,0.0,70,0.00,CLR,CLR,0.01,WeatherDisplay:10.37,2013-02-23 19:47:00,
2013-02-23 14:52:00,36.2,27.4,30.77,North,3,0.0,0.0,70,0.00,CLR,CLR,0.01,WeatherDisplay:10.37,2013-02-23 19:52:00,
2013-02-23 15:02:00,35.9,27.4,30.78,North,0,0.0,0.0,71,0.00,CLR,CLR,0.01,WeatherDisplay:10.37,2013-02-23 20:02:00,
2013-02-23 15:07:00,35.5,26.7,30.78,North,0,0.0,0.0,70,0.00,CLR,CLR,0.01,WeatherDisplay:10.37,2013-02-23 20:07:00,
2013-02-23 15:12:00,35.5,26.7,30.78,North,0,0.0,0.0,70,0.00,CLR,CLR,0.01,WeatherDisplay:10.37,2013-02-23 20:12:00,
2013-02-23 15:17:00,35.7,27.5,30.78,North,0,0.0,0.0,72,0.00,CLR,CLR,0.01,WeatherDisplay:10.37,2013-02-23 20:17:00,
2013-02-23 15:22:00,35.5,27.0,30.78,North,0,0.0,0.0,71,0.00,CLR,CLR,0.01,WeatherDisplay:10.37,2013-02-23 20:22:00,
2013-02-23 15:27:00,35.3,26.8,30.78,North,0,0.0,0.0,71,0.00,CLR,CLR,0.01,WeatherDisplay:10.37,2013-02-23 20:27:00,
2013-02-23 15:32:00,35.2,26.7,30.77,North,2,0.0,0.0,71,0.00,CLR,CLR,0.01,WeatherDisplay:10.37,2013-02-23 20:32:00,
2013-02-23 15:37:00,35.2,26.7,30.78,North,1,0.0,0.0,71,0.00,CLR,CLR,0.01,WeatherDisplay:10.37,2013-02-23 20:37:00,
2013-02-23 15:42:00,35.1,26.7,30.78,North,1,0.0,0.0,71,0.00,CLR,CLR,0.01,WeatherDisplay:10.37,2013-02-23 20:42:00,
2013-02-23 15:47:00,35.0,26.9,30.77,North,2,0.0,0.0,72,0.00,CLR,CLR,0.01,WeatherDisplay:10.37,2013-02-23 20:47:00,
2013-02-23 15:52:00,35.0,26.5,30.78,North,3,0.0,0.0,71,0.00,CLR,CLR,0.01,WeatherDisplay:10.37,2013-02-23 20:52:00,
2013-02-23 15:57:00,35.0,26.9,30.77,North,5,0.0,0.0,72,0.00,CLR,CLR,0.01,WeatherDisplay:10.37,2013-02-23 20:57:00,
2013-02-23 16:02:00,35.0,26.9,30.77,North,3,0.0,0.0,72,0.00,CLR,CLR,0.01,WeatherDisplay:10.37,2013-02-23 21:02:00,
2013-02-23 16:07:00,35.0,26.5,30.77,North,1,0.0,0.0,71,0.00,CLR,CLR,0.01,WeatherDisplay:10.37,2013-02-23 21:07:00,
2013-02-23 16:12:00,35.0,26.5,30.76,North,1,0.0,0.0,71,0.00,CLR,CLR,0.01,WeatherDisplay:10.37,2013-02-23 21:12:00,
2013-02-23 16:17:00,35.1,27.0,30.76,North,0,0.0,0.0,72,0.00,CLR,CLR,0.01,WeatherDisplay:10.37,2013-02-23 21:17:00,
2013-02-23 16:22:00,35.2,27.0,30.76,North,1,0.0,0.0,72,0.00,CLR,CLR,0.01,WeatherDisplay:10.37,2013-02-23 21:22:00,
2013-02-23 16:27:00,35.2,26.4,30.76,North,1,0.0,0.0,70,0.00,CLR,CLR,0.01,WeatherDisplay:10.37,2013-02-23 21:27:00,
2013-02-23 16:32:00,35.3,26.8,30.76,North,0,0.0,0.0,71,0.00,CLR,CLR,0.01,WeatherDisplay:10.37,2013-02-23 21:32:00,
2013-02-23 16:37:00,35.2,26.8,30.76,North,2,0.0,0.0,71,0.00,CLR,CLR,0.01,WeatherDisplay:10.37,2013-02-23 21:37:00,
2013-02-23 16:42:00,35.3,27.2,30.76,North,3,0.0,0.0,72,0.00,CLR,CLR,0.01,WeatherDisplay:10.37,2013-02-23 21:42:00,
2013-02-23 16:47:00,35.3,26.4,30.76,North,2,0.0,0.0,70,0.00,CLR,CLR,0.01,WeatherDisplay:10.37,2013-02-23 21:47:00,
2013-02-23 16:52:00,35.2,26.4,30.76,North,1,0.0,0.0,70,0.00,CLR,CLR,0.01,WeatherDisplay:10.37,2013-02-23 21:52:00,
2013-02-23 16:57:00,35.2,26.4,30.76,North,1,0.0,0.0,70,0.00,CLR,CLR,0.01,WeatherDisplay:10.37,2013-02-23 21:57:00,
2013-02-23 17:02:00,34.7,25.9,30.76,North,3,0.0,0.0,70,0.00,CLR,CLR,0.01,WeatherDisplay:10.37,2013-02-23 22:02:00,
2013-02-23 17:07:00,34.5,25.7,30.76,North,2,0.0,0.0,70,0.00,CLR,CLR,0.01,WeatherDisplay:10.37,2013-02-23 22:07:00,
2013-02-23 17:12:00,34.5,26.4,30.76,North,1,0.0,0.0,72,0.00,CLR,CLR,0.01,WeatherDisplay:10.37,2013-02-23 22:12:00,
2013-02-23 17:17:00,34.1,26.0,30.77,North,1,0.0,0.0,72,0.00,CLR,CLR,0.01,WeatherDisplay:10.37,2013-02-23 22:17:00,
2013-02-23 17:22:00,33.8,25.7,30.77,North,1,0.0,0.0,72,0.00,CLR,CLR,0.01,WeatherDisplay:10.37,2013-02-23 22:22:00,
2013-02-23 17:27:00,33.5,25.5,30.77,North,1,0.0,0.0,72,0.00,CLR,CLR,0.01,WeatherDisplay:10.37,2013-02-23 22:27:00,
2013-02-23 17:32:00,33.4,25.7,30.78,North,1,0.0,0.0,73,0.00,CLR,CLR,0.01,WeatherDisplay:10.37,2013-02-23 22:32:00,
2013-02-23 17:37:00,33.3,25.6,30.78,North,2,0.0,0.0,73,0.00,CLR,CLR,0.01,WeatherDisplay:10.37,2013-02-23 22:37:00,
2013-02-23 17:42:00,33.2,25.1,30.78,North,1,0.0,0.0,72,0.00,CLR,CLR,0.01,WeatherDisplay:10.37,2013-02-23 22:42:00,
2013-02-23 17:47:00,33.1,25.4,30.78,North,2,0.0,0.0,73,0.00,CLR,CLR,0.01,WeatherDisplay:10.37,2013-02-23 22:47:00,
2013-02-23 17:52:00,33.0,25.6,30.78,North,2,0.0,0.0,74,0.00,CLR,CLR,0.01,WeatherDisplay:10.37,2013-02-23 22:52:00,
2013-02-23 17:57:00,32.9,25.5,30.78,North,2,0.0,0.0,74,0.00,CLR,CLR,0.01,WeatherDisplay:10.37,2013-02-23 22:57:00,
2013-02-23 18:02:00,32.7,25.4,30.78,North,1,0.0,0.0,74,0.00,CLR,CLR,0.01,WeatherDisplay:10.37,2013-02-23 23:02:00,
2013-02-23 18:07:00,32.6,25.2,30.78,North,1,0.0,0.0,74,0.00,CLR,CLR,0.01,WeatherDisplay:10.37,2013-02-23 23:07:00,
2013-02-23 18:12:00,32.5,25.1,30.78,North,3,0.0,0.0,74,0.00,CLR,CLR,0.01,WeatherDisplay:10.37,2013-02-23 23:12:00,
2013-02-23 18:17:00,32.4,25.4,30.78,North,4,0.0,0.0,75,0.00,CLR,CLR,0.01,WeatherDisplay:10.37,2013-02-23 23:17:00,
2013-02-23 18:22:00,32.3,25.6,30.79,North,5,0.0,0.0,76,0.00,CLR,CLR,0.01,WeatherDisplay:10.37,2013-02-23 23:22:00,
2013-02-23 18:27:00,32.2,25.2,30.79,North,3,0.0,0.0,75,0.00,CLR,CLR,0.01,WeatherDisplay:10.37,2013-02-23 23:27:00,
2013-02-23 18:32:00,32.2,25.1,30.79,North,0,0.0,0.0,75,0.00,CLR,CLR,0.01,WeatherDisplay:10.37,2013-02-23 23:32:00,
2013-02-23 18:37:00,32.1,25.4,30.79,North,0,0.0,0.0,76,0.00,CLR,CLR,0.01,WeatherDisplay:10.37,2013-02-23 23:37:00,
2013-02-23 18:42:00,32.0,25.6,30.80,North,0,0.0,0.0,77,0.00,CLR,CLR,0.01,WeatherDisplay:10.37,2013-02-23 23:42:00,
2013-02-23 18:47:00,31.7,25.6,30.80,North,1,0.0,0.0,78,0.00,CLR,CLR,0.01,WeatherDisplay:10.37,2013-02-23 23:47:00,
2013-02-23 18:52:00,31.6,25.2,30.79,North,2,0.0,0.0,77,0.00,CLR,CLR,0.01,WeatherDisplay:10.37,2013-02-23 23:52:00,
2013-02-23 18:57:00,31.5,25.1,30.79,North,2,0.0,0.0,77,0.00,CLR,CLR,0.01,WeatherDisplay:10.37,2013-02-23 23:57:00,
2013-02-23 19:02:00,31.4,25.3,30.79,North,3,0.0,0.0,78,0.00,CLR,CLR,0.01,WeatherDisplay:10.37,2013-02-24 00:02:00,
2013-02-23 19:07:00,31.4,25.3,30.80,North,2,0.0,0.0,78,0.00,CLR,CLR,0.01,WeatherDisplay:10.37,2013-02-24 00:07:00,
2013-02-23 19:12:00,31.3,25.2,30.80,North,0,0.0,0.0,78,0.00,CLR,CLR,0.01,WeatherDisplay:10.37,2013-02-24 00:12:00,
2013-02-23 19:17:00,31.2,25.4,30.80,North,1,0.0,0.0,79,0.00,CLR,CLR,0.01,WeatherDisplay:10.37,2013-02-24 00:17:00,
2013-02-23 19:22:00,31.2,25.4,30.80,North,1,0.0,0.0,79,0.00,CLR,CLR,0.01,WeatherDisplay:10.37,2013-02-24 00:22:00,
2013-02-23 19:27:00,31.1,25.0,30.80,North,1,0.0,0.0,78,0.00,CLR,CLR,0.01,WeatherDisplay:10.37,2013-02-24 00:27:00,
2013-02-23 19:32:00,31.1,25.0,30.80,North,1,0.0,0.0,78,0.00,CLR,CLR,0.01,WeatherDisplay:10.37,2013-02-24 00:32:00,
2013-02-23 19:37:00,31.1,25.3,30.80,North,0,0.0,0.0,79,0.00,CLR,CLR,0.01,WeatherDisplay:10.37,2013-02-24 00:37:00,
2013-02-23 19:42:00,31.1,25.0,30.80,North,2,0.0,0.0,78,0.00,CLR,CLR,0.01,WeatherDisplay:10.37,2013-02-24 00:42:00,
2013-02-23 19:47:00,31.0,24.9,30.79,North,1,0.0,0.0,78,0.00,CLR,CLR,0.01,WeatherDisplay:10.37,2013-02-24 00:47:00,
2013-02-23 19:52:00,31.0,25.2,30.79,North,3,0.0,0.0,79,0.00,CLR,CLR,0.01,WeatherDisplay:10.37,2013-02-24 00:52:00,
2013-02-23 19:57:00,30.9,24.9,30.79,North,2,0.0,0.0,78,0.00,CLR,CLR,0.01,WeatherDisplay:10.37,2013-02-24 00:57:00,
2013-02-23 20:02:00,30.9,24.8,30.79,North,1,0.0,0.0,78,0.00,CLR,CLR,0.01,WeatherDisplay:10.37,2013-02-24 01:02:00,
2013-02-23 20:07:00,30.8,25.1,30.79,North,1,0.0,0.0,79,0.00,CLR,CLR,0.01,WeatherDisplay:10.37,2013-02-24 01:07:00,
2013-02-23 20:12:00,30.8,24.7,30.79,North,3,0.0,0.0,78,0.00,CLR,CLR,0.01,WeatherDisplay:10.37,2013-02-24 01:12:00,
2013-02-23 20:17:00,30.7,24.7,30.79,North,3,0.0,0.0,78,0.00,CLR,CLR,0.01,WeatherDisplay:10.37,2013-02-24 01:17:00,
2013-02-23 20:22:00,30.7,24.9,30.79,North,2,0.0,0.0,79,0.00,CLR,CLR,0.01,WeatherDisplay:10.37,2013-02-24 01:22:00,
2013-02-23 20:27:00,30.6,24.9,30.79,North,1,0.0,0.0,79,0.00,CLR,CLR,0.01,WeatherDisplay:10.37,2013-02-24 01:27:00,
2013-02-23 20:32:00,30.6,24.9,30.79,North,3,0.0,0.0,79,0.00,CLR,CLR,0.01,WeatherDisplay:10.37,2013-02-24 01:32:00,
2013-02-23 20:37:00,30.6,25.2,30.79,North,3,0.0,0.0,80,0.00,CLR,CLR,0.01,WeatherDisplay:10.37,2013-02-24 01:37:00,
2013-02-23 20:42:00,30.6,24.9,30.79,North,3,0.0,0.0,79,0.00,CLR,CLR,0.01,WeatherDisplay:10.37,2013-02-24 01:42:00,
2013-02-23 20:47:00,30.6,24.9,30.79,North,1,0.0,0.0,79,0.00,CLR,CLR,0.01,WeatherDisplay:10.37,2013-02-24 01:47:00,
2013-02-23 20:52:00,30.6,24.9,30.79,North,2,0.0,0.0,79,0.00,CLR,CLR,0.01,WeatherDisplay:10.37,2013-02-24 01:52:00,
2013-02-23 20:57:00,30.6,24.9,30.79,North,3,0.0,0.0,79,0.00,CLR,CLR,0.01,WeatherDisplay:10.37,2013-02-24 01:57:00,
2013-02-23 21:02:00,30.6,24.9,30.79,North,1,0.0,0.0,79,0.00,CLR,CLR,0.01,WeatherDisplay:10.37,2013-02-24 02:02:00,
2013-02-23 21:07:00,30.6,25.2,30.79,North,1,0.0,0.0,80,0.00,CLR,CLR,0.01,WeatherDisplay:10.37,2013-02-24 02:07:00,
2013-02-23 21:12:00,30.6,25.2,30.79,North,1,0.0,0.0,80,0.00,CLR,CLR,0.01,WeatherDisplay:10.37,2013-02-24 02:12:00,
2013-02-23 21:17:00,30.5,25.1,30.79,North,1,0.0,0.0,80,0.00,CLR,CLR,0.01,WeatherDisplay:10.37,2013-02-24 02:17:00,
2013-02-23 21:22:00,30.4,25.0,30.79,North,1,0.0,0.0,80,0.00,CLR,CLR,0.01,WeatherDisplay:10.37,2013-02-24 02:22:00,
2013-02-23 21:27:00,30.2,24.8,30.79,North,1,0.0,0.0,80,0.00,CLR,CLR,0.01,WeatherDisplay:10.37,2013-02-24 02:27:00,
2013-02-23 21:32:00,30.2,24.8,30.79,North,2,0.0,0.0,80,0.00,CLR,CLR,0.01,WeatherDisplay:10.37,2013-02-24 02:32:00,
2013-02-23 21:37:00,30.1,25.0,30.79,North,1,0.0,0.0,81,0.00,CLR,CLR,0.01,WeatherDisplay:10.37,2013-02-24 02:37:00,
2013-02-23 21:42:00,30.1,24.7,30.79,North,0,0.0,0.0,80,0.00,CLR,CLR,0.01,WeatherDisplay:10.37,2013-02-24 02:42:00,
2013-02-23 21:47:00,30.1,24.7,30.79,North,1,0.0,0.0,80,0.00,CLR,CLR,0.01,WeatherDisplay:10.37,2013-02-24 02:47:00,
2013-02-23 21:52:00,30.1,25.0,30.79,North,2,0.0,0.0,81,0.00,CLR,CLR,0.01,WeatherDisplay:10.37,2013-02-24 02:52:00,
2013-02-23 21:57:00,30.2,24.8,30.79,North,2,0.0,0.0,80,0.00,CLR,CLR,0.01,WeatherDisplay:10.37,2013-02-24 02:57:00,
2013-02-23 22:02:00,30.2,24.8,30.79,North,2,0.0,0.0,80,0.00,CLR,CLR,0.01,WeatherDisplay:10.37,2013-02-24 03:02:00,
2013-02-23 22:07:00,30.2,24.8,30.79,North,1,0.0,0.0,80,0.00,CLR,CLR,0.01,WeatherDisplay:10.37,2013-02-24 03:07:00,
2013-02-23 22:12:00,30.2,24.8,30.79,North,1,0.0,0.0,80,0.00,CLR,CLR,0.01,WeatherDisplay:10.37,2013-02-24 03:12:00,
2013-02-23 22:17:00,30.2,24.8,30.79,North,1,0.0,0.0,80,0.00,CLR,CLR,0.01,WeatherDisplay:10.37,2013-02-24 03:17:00,
2013-02-23 22:22:00,30.2,25.1,30.79,North,3,0.0,0.0,81,0.00,CLR,CLR,0.01,WeatherDisplay:10.37,2013-02-24 03:22:00,
2013-02-23 22:27:00,30.2,24.8,30.79,North,1,0.0,0.0,80,0.00,CLR,CLR,0.01,WeatherDisplay:10.37,2013-02-24 03:27:00,
2013-02-23 22:32:00,30.2,24.8,30.79,North,0,0.0,0.0,80,0.00,CLR,CLR,0.01,WeatherDisplay:10.37,2013-02-24 03:32:00,
2013-02-23 22:37:00,30.2,24.8,30.79,North,3,0.0,0.0,80,0.00,CLR,CLR,0.01,WeatherDisplay:10.37,2013-02-24 03:37:00,
2013-02-23 22:42:00,30.2,24.8,30.79,North,4,0.0,0.0,80,0.00,CLR,CLR,0.01,WeatherDisplay:10.37,2013-02-24 03:42:00,
2013-02-23 22:47:00,30.2,25.1,30.78,North,3,0.0,0.0,81,0.00,CLR,CLR,0.01,WeatherDisplay:10.37,2013-02-24 03:47:00,
2013-02-23 22:52:00,30.2,24.8,30.78,North,1,0.0,0.0,80,0.00,CLR,CLR,0.01,WeatherDisplay:10.37,2013-02-24 03:52:00,
2013-02-23 22:57:00,30.1,24.4,30.78,North,0,0.0,0.0,79,0.00,CLR,CLR,0.01,WeatherDisplay:10.37,2013-02-24 03:57:00,
2013-02-23 23:02:00,30.1,24.7,30.78,North,1,0.0,0.0,80,0.00,CLR,CLR,0.01,WeatherDisplay:10.37,2013-02-24 04:02:00,
2013-02-23 23:07:00,30.1,24.7,30.78,North,1,0.0,0.0,80,0.00,CLR,CLR,0.01,WeatherDisplay:10.37,2013-02-24 04:07:00,
2013-02-23 23:12:00,30.1,24.7,30.78,North,1,0.0,0.0,80,0.00,CLR,CLR,0.01,WeatherDisplay:10.37,2013-02-24 04:12:00,
2013-02-23 23:17:00,30.1,24.4,30.78,North,1,0.0,0.0,79,0.00,CLR,CLR,0.01,WeatherDisplay:10.37,2013-02-24 04:17:00,
2013-02-23 23:22:00,30.1,24.7,30.77,North,1,0.0,0.0,80,0.00,CLR,CLR,0.01,WeatherDisplay:10.37,2013-02-24 04:22:00,
2013-02-23 23:27:00,30.1,24.6,30.77,North,3,0.0,0.0,80,0.00,CLR,CLR,0.01,WeatherDisplay:10.37,2013-02-24 04:27:00,
2013-02-23 23:32:00,30.0,24.6,30.77,North,2,0.0,0.0,80,0.00,CLR,CLR,0.01,WeatherDisplay:10.37,2013-02-24 04:32:00,
2013-02-23 23:37:00,30.0,24.3,30.77,North,3,0.0,0.0,79,0.00,CLR,CLR,0.01,WeatherDisplay:10.37,2013-02-24 04:37:00,
2013-02-23 23:42:00,30.0,24.6,30.77,North,3,0.0,0.0,80,0.00,CLR,CLR,0.01,WeatherDisplay:10.37,2013-02-24 04:42:00,
2013-02-23 23:47:00,30.0,24.5,30.77,North,4,0.0,0.0,80,0.00,CLR,CLR,0.01,WeatherDisplay:10.37,2013-02-24 04:47:00,
2013-02-23 23:52:00,30.0,24.6,30.77,North,4,0.0,0.0,80,0.00,CLR,CLR,0.01,WeatherDisplay:10.37,2013-02-24 04:52:00,
2013-02-23 23:57:00,29.9,24.5,30.76,North,3,0.0,0.0,80,0.00,CLR,CLR,0.01,WeatherDisplay:10.37,2013-02-24 04:57:00,